Regional Weather Roundup
Issued by NWS

Home | Current Version | Previous Version | Graphics & Text | Print | Product List | Glossary On
Versions: 1 2 3 4 5 6 7 8 9 10 11 12 13 14 15 16 17 18 19 20 21 22 23 24 25 26 27 28 29 30 31 32 33 34 35 36 37 38 39 40 41 42 43 44 45 46 47 48 49 50
000
ASUS43 KMPX 241410
RWRMN
WEATHER ROUNDUP FOR MINNESOTA
NATIONAL WEATHER SERVICE TWIN CITIES/CHANHASSEN MN
900 AM CDT THU APR 24 2014


NOTE: "FAIR" INDICATES FEW OR NO CLOUDS BELOW 12,000 FEET WITH NO
SIGNIFICANT WEATHER AND/OR OBSTRUCTIONS TO VISIBILITY. N/A MEANS
CURRENT SKY AND/OR WEATHER CONDITIONS ARE NOT AVAILABLE.

MNZ060>063-068>070-241500-
   Twin Cities Metro

CITY           SKY/WX    TMP DP  RH WIND       PRES   REMARKS
TWIN CITIES    RAIN      40  39  97 E15       29.78F FOG
ST PAUL        LGT RAIN  40  38  93 E9        29.80F FOG
CRYSTAL        LGT RAIN  41  37  86 E10       29.78F FOG
BLAINE         LGT RAIN  41  39  93 E10G20    29.79
EDEN PRAIRIE   RAIN      41  38  89 E12       29.75F FOG
LAKEVILLE      LGT RAIN  37  37 100 E13       29.76F
SOUTH ST PAUL  LGT RAIN  42  41  95 E7        29.78F
LAKE ELMO      LGT RAIN  39  37  93 E8        29.81F
$$
MNZ001>005-007-008-013>017-022>024-027-028-241500-
   Northwest Minnesota

CITY           SKY/WX    TMP DP  RH WIND       PRES   REMARKS
BEMIDJI        CLOUDY    36  35  97 E12       29.79F FOG
HALLOCK        DRIZZLE   39  37  93 SE12      29.78S
ROSEAU         CLOUDY    37  34  87 SE8       29.82F FOG
WARROAD        LGT SNOW  37  34  87 SE9       29.84F
THIEF RVR FALL CLOUDY    37  34  87 E9        29.80S
CROOKSTON      MIX PCPN  39  37  93 SE6       29.78F
FOSSTON        DRIZZLE   36  36 100 E9        29.79S
DETROIT LAKES  DRIZZLE   37  37 100 SE8       29.77F
MOORHEAD       LGT RAIN  41  41 100 S5        29.77S
PARK RAPIDS    CLOUDY    38  38 100 SE9       29.77F FOG
$$
MNZ006-009>011-018-025>026-241500-
   North Central Minnesota

CITY           SKY/WX    TMP DP  RH WIND       PRES   REMARKS
BAUDETTE       CLOUDY    38  36  92 SE8       29.85F FOG
FLAG ISLAND    LGT RAIN  37  36  93 E10       29.85F
INTL FALLS     LGT RAIN  39  36  89 SE10      29.88F
WASKISH        LGT RAIN  37  37 100 E9        29.82F
BIG FORK       CLOUDY    37  36  93 SE7       29.86F
LONGVILLE      DRIZZLE   37  37 100 E6        29.81F
GRAND RAPIDS   CLOUDY    37  34  87 SE10      29.84F
CRANE LAKE     DRIZZLE   37  37 100 CALM      29.93F
ORR            CLOUDY    37  34  87 SE8       29.86F
COOK           CLOUDY    37  36  93 SE8G18    29.90S
$$
MNZ012-019>021-037-241500-
   Northeast Minnesota

CITY           SKY/WX    TMP DP  RH WIND       PRES   REMARKS
DULUTH         DRIZZLE   35  33  92 E16       29.90F FOG     WCI  25
ELY            CLOUDY    37  34  87 SE13G20   29.93F
HIBBING        LGT RAIN  37  34  89 SE15      29.87F
EVELETH        RAIN      36  36 100 SE10G20   29.90F
DULUTH HARBOR  CLOUDY    34  32  93 NE15      29.94F WCI  24
TWO HARBORS    DRIZZLE   36  30  80 E8        29.93F
SILVER BAY     DRIZZLE   34  34 100 NE7       29.96F WCI  28
GRAND MARAIS     N/A     36  29  75 E12       30.03S
G MARAIS ARPRT CLOUDY    36  27  69 E7        30.00S
$$
MNZ029>031-032-039>041-046>048-054>057-064-241500-
   West Central Minnesota

CITY           SKY/WX    TMP DP  RH WIND       PRES   REMARKS
FERGUS FALLS   DRIZZLE   41  37  87 SE6       29.75R
WHEATON        MIX PCPN  43  41  93 CALM      29.78S
MORRIS         LGT RAIN  41  39  93 E3        29.74S
ALEXANDRIA     LGT RAIN  40  39  97 SE10      29.75F FOG
ELBOW LAKE     RAIN      40  39  99 SE5       29.76R
WADENA         DRIZZLE   39  37  93 E10       29.76F
GLENWOOD       DRIZZLE   39  39 100 E12       29.74F
APPLETON       RAIN      43  41  93 CALM      29.75R VSB 3/4
BENSON         DRIZZLE   41  39  93 SE6       29.74R
ORTONVILLE     RAIN      41  39  93 CALM      29.75R
MADISON        RAIN      45  43  93 N3        29.75R
WILLMAR        MIX PCPN  43  39  87 E13       29.75R
$$
MNZ033>034-036-042>043-049>051-058-059-241500-
   Central Minnesota

CITY           SKY/WX    TMP DP  RH WIND       PRES   REMARKS
ST CLOUD       CLOUDY    42  38  85 E8G17     29.78S FOG
SAUK CENTRE    CLOUDY    40  39  97 E10       29.75F FOG
PAYNESVILLE    RAIN      40  39  95 E5        29.75F
AITKIN         CLOUDY    41  36  81 E7        29.80F HAZE
PINE RIVER     CLOUDY    37  37 100 E10       29.84S FOG
BRAINERD       CLOUDY    43  37  79 E12G17    29.80S HAZE
STAPLES        DRIZZLE   39  39 100 E6        29.78S
LONG PRAIRIE   CLOUDY    39  37  93 E9        29.76S
LITTLE FALLS   CLOUDY    39  37  93 E12G17    29.78S FOG
LITCHFIELD     DRIZZLE   41  41 100 E13       29.76R
BUFFALO        LGT RAIN  41  38  89 E10G16    29.78R
MAPLE LAKE     DRIZZLE   41  40  95 E9        29.78R
$$
MNZ037-044-045-052-053-241500-
   East Central Minnesota

CITY           SKY/WX    TMP DP  RH WIND       PRES   REMARKS
PRINCETON      DRIZZLE   41  37  87 E8G17     29.80F
MORA           DRIZZLE   36  34  93 E12       29.84F
CAMBRIDGE      LGT RAIN  41  34  75 E10G17    29.79F
RUSH CITY      CLOUDY    39  37  93 E7        29.83F
MOOSE LAKE     DRIZZLE   36  34  93 E7        29.85F
HINCKLEY       DRIZZLE   37  37 100 E9        29.84F
CLOQUET        DRIZZLE   36  34  93 E9G16     29.88F
MCGREGOR       CLOUDY    37  36  93 SE13G22   29.84F
$$
MNZ071>073-080-081-089-090-097-098-241500-
   Southwest Minnesota

CITY           SKY/WX    TMP DP  RH WIND       PRES   REMARKS
MONTEVIDEO     DRIZZLE   43  43 100 SE7       29.75R
GRANITE FALLS  RAIN      42  41  93 E6        29.75R
CANBY          RAIN      41  41  99 NW7       29.75R VSB 1
MARSHALL       CLOUDY    45  39  81 S3        29.72R VSB 1
REDWOOD FALLS  LGT RAIN  44  42  93 SE7       29.73R FOG
OLIVIA         LGT RAIN  43  39  87 E9        29.73R
PIPESTONE      DRIZZLE   45  43  93 NW3       29.71R
WINDOM         LGT RAIN  43  41  93 SE7       29.71R
WORTHINGTON    CLOUDY    43  37  81 SE7       29.71S
JACKSON        RAIN      43  39  87 SE7       29.70R
TRACY          LGT RAIN  44  42  94 CALM      29.71S
SLAYTON        DRIZZLE   42  42 100 S3        29.72R
$$
MNZ065>067-074>077-082>085-091>093-241500-
   South Central Minnesota

CITY           SKY/WX    TMP DP  RH WIND       PRES   REMARKS
MANKATO        CLOUDY    43  39  87 SE12      29.74R
NEW ULM        LGT RAIN  43  43 100 SE9       29.72R
ST JAMES       LGT RAIN  43  39  87 E9        29.71S
FAIRMONT       CLOUDY    43  37  81 SE15      29.70S
GLENCOE        LGT RAIN  42  38  88 E14       29.73R
FARIBAULT      LGT RAIN  43  37  81 E8        29.74F
OWATONNA       LGT RAIN  43  39  87 SE23G31   29.71F
WASECA         RAIN      41  34  75 SE17G24   29.73S
ALBERT LEA     CLOUDY    39  39 100 SE20G29   29.70F
$$
MNZ078>079-086>088-094>096-241500-
   Southeast Minnesota

CITY           SKY/WX    TMP DP  RH WIND       PRES   REMARKS
ROCHESTER      LGT RAIN  41  37  86 SE29      29.73F FOG
RED WING       LGT RAIN  41  37  87 SE18G28   29.78
STANTON        LGT RAIN  41  37  86 E9        29.74F
DODGE CENTER   LGT RAIN  45  41  87 SE25G31   29.72F
WINONA         RAIN      39  37  93 SE14      29.82F
AUSTIN         CLOUDY    43  37  81 SE22G29   29.71F
PRESTON        LGT RAIN  39  37  91 SE17G24   29.78F
$$
ABBREVIATIONS USED IN REMARKS
   TC - TEMPERATURES IN CELSIUS
  WCI - WIND CHILL INDEX
   HX - HEAT INDEX
  VSB - VISIBILITY
$$


USA.gov is the U.S. government's official web portal to all federal, state and local government web resources and services.